This is the latest recevied weather packets stored in our database for station/object M0JUI-1. If no packets are shown the sender has not sent any weather packets the latest 10 day(s).
| Time | Temp. | Humidity | Pressure | Rain* | Wind** | Luminosity | Snow |
|---|---|---|---|---|---|---|---|
| 1777481294 | 15° C | 61% | 1025.3 hPa | 0 mm | - | 124 W/m² | - |
| 1777480994 | 15° C | 60% | 1025.6 hPa | 0 mm | - | 109 W/m² | - |
| 1777480695 | 15° C | 59% | 1025.6 hPa | 0 mm | - | 106 W/m² | - |
| 1777480394 | 15° C | 60% | 1025.5 hPa | 0 mm | - | 113 W/m² | - |
| 1777480094 | 15° C | 58% | 1025.4 hPa | 0 mm | - | 120 W/m² | - |
| 1777479795 | 15° C | 58% | 1025.4 hPa | 0 mm | - | 129 W/m² | - |
| 1777479494 | 15° C | 58% | 1025.2 hPa | 0 mm | - | 148 W/m² | - |
| 1777479194 | 15° C | 59% | 1025.2 hPa | 0 mm | - | 134 W/m² | - |
| 1777478894 | 15° C | 59% | 1025.5 hPa | 0 mm | - | 153 W/m² | - |
| 1777478582 | 15.56° C | 59% | 1025.4 hPa | 0 mm | - | 113 W/m² | - |
| 1777478282 | 15.56° C | 59% | 1025.4 hPa | 0 mm | - | 109 W/m² | - |
| 1777477982 | 15.56° C | 58% | 1025.5 hPa | 0 mm | - | 134 W/m² | - |
| 1777477670 | 16.11° C | 59% | 1025.8 hPa | 0 mm | - | 173 W/m² | - |
| 1777477358 | 16.11° C | 58% | 1025.8 hPa | 0 mm | - | 255 W/m² | - |
| 1777477046 | 16.11° C | 59% | 1026 hPa | 0 mm | - | 267 W/m² | - |
| 1777476746 | 16.67° C | 59% | 1026 hPa | 0 mm | - | 324 W/m² | - |
| 1777476446 | 16.67° C | 59% | 1026.1 hPa | 0 mm | - | 347 W/m² | - |
| 1777476146 | 16.67° C | 59% | 1026.3 hPa | 0 mm | - | 306 W/m² | - |
| 1777475846 | 16.67° C | 59% | 1026.3 hPa | 0 mm | - | 282 W/m² | - |
| 1777475546 | 16.67° C | 58% | 1026.2 hPa | 0 mm | - | 375 W/m² | - |
| 1777475246 | 16.67° C | 57% | 1026.1 hPa | 0 mm | - | 483 W/m² | - |
| 1777474935 | 16.67° C | 56% | 1026 hPa | 0 mm | - | 511 W/m² | - |
| 1777474635 | 16.67° C | 57% | 1025.9 hPa | 0 mm | - | 510 W/m² | - |
| 1777474334 | 17.22° C | 57% | 1026.1 hPa | 0 mm | - | 502 W/m² | - |
| 1777474023 | 16.67° C | 56% | 1026 hPa | 0 mm | - | 519 W/m² | - |
* Rain latest hour (hover to see other rain measurements)
** Current wind speed in m/s (hover to see current wind gust speed)